Weather in Bashmak

Russia / Jewish Autonomous Oblast     47°56′19″N   132°01′47″E
В апреле 2022 года жителям России запретили посещать сайт meteo.paraplan.net по решению Генеральной прокуратуры. Аудитория сайта уменьшилась в 10 раз. Владельцы сайта не видят смысла в поддержке погодного сервера в таких условиях. Сайт будет закрыт в октябре.
temp.,
°C
wind,
m/s
gust,
m/s
humid.,
%
clouds,
%
prec.,
mm/h
press.,
hPa
HPBL,
m
3 october, mon
mon301:00+13nne3477100 0.0 101479
04:00+10n3488100 0.0 101366
07:00+10nnw3581100 0.0 1013162
10:00+11nnw6875100 0.0 1013572
13:00+8nnw71280100 0.4 1013608
16:00+5nnw81487100 1.4 1013638
19:00+3nnw81480100 1.4 1016836
22:00+3nnw61367100 1.8 1016966
4 october, tue
tue401:00+3nw511640 0.1 1016743
04:00−1w58690 0.1 1017155
07:00−1w510700 0.0 1017294
10:00+2wnw813525 0.0 10171349
13:00+5nw91142100 0.0 10152075
16:00+6nw91242100 0.0 10152292
19:00+3wnw612505 0.0 1016401
22:00+1wnw511570 0.0 1017246
5 october, wed
wed501:000w59600 0.0 1017175
04:00−1w49610 0.0 1018166
07:00−1w48630 0.0 1018165
10:00+3wnw58462 0.0 1019753
13:00+6wnw6936100 0.0 10182386
16:00+7wnw7933100 0.0 10172339
19:00+3nw48483 0.0 1018126
22:00+1w46565 0.0 101986
6 october, thu
thu601:000w48615 0.0 1020118
04:00−1w48620 0.0 1020127
07:00−1w47630 0.0 1021114
10:00+5w47410 0.0 1022510
13:00+9wsw610327 0.0 10202237
16:00+10wnw692898 0.0 10192729
19:00+5wsw33445 0.0 101933
22:00+3w45525 0.0 102068
7 october, fri
fri701:00+2w33530 0.0 102025
04:00+1w22540 0.0 102119
07:000w33530 0.0 102226
10:00+6w23410 0.0 1022288
13:00+10w45300 0.0 10211759
16:00+11w46295 0.0 10212307
19:00+7w22425 0.0 102210
22:00+4nnw12523 0.0 102310